331  
ASPQ40 PGUM 260710  
RWRPQ  
WEATHER ROUNDUP FOR THE MARIANAS AND MICRONESIA  
NATIONAL WEATHER SERVICE TIYAN GU  
500 PM CHST THU APR 26 2018  
 
GUZ001>004-260800-  
MARIANA ISLANDS-  
 
CITY SKY/WX TMP DP RH WIND PRES REMARKS
 
GUAM AIRPORT MOSUNNY 88 79 74 E14 29.83R HX 102  
ANDERSEN AFB PTSUNNY 82 75 78 E14 29.84R  
ROTA AIRPORT PTSUNNY 81 75 83 E16 29.84R  
TINIAN AP MOSUNNY 82 75 78 NE14 29.82S  
SAIPAN AP MOSUNNY 84 79 84 E17 29.84S HX 96  
 

 
 
PMZ161-260800-  
REPUBLIC OF PALAU-  
 
CITY SKY/WX TMP DP RH WIND PRES REMARKS
 
KOROR AP PTSUNNY 88 77 70 NE13G22 29.75R HX 100  
KOROR WSO CLOUDY 84 79 84 N5 29.75R HX 96  
 

 
 
PMZ171>174-260800-  
FEDERATED STATES OF MICRONESIA-  
 
CITY SKY/WX TMP DP RH WIND PRES REMARKS
 
YAP AIRPORT MOSUNNY 86 77 74 VRB6 29.77S HX 97  
CHUUK AP MOSUNNY 90 81 74 NE7 29.75R HX 108  
POHNPEI AP NOT AVBL  
POHNPEI WSO MOCLDY 84 77 79 E3 29.78S HX 94  
KOSRAE AP NOT AVBL  
 

 
 
PMZ181-260800-  
REPUBLIC OF THE MARSHALL ISLANDS-  
 
CITY SKY/WX TMP DP RH WIND PRES REMARKS
 
KWAJALEIN AP RAIN 79 77 94 E28 29.79S  
MAJURO AP NOT AVBL  
MAJURO WSO MOCLDY 79 77 94 CALM 29.75R  
 

 
 
 
 
CLICK HERE TO GO TO PREVIOUS BULLETINS.

The Nexlab GU Page Main Text Page